Regional Weather Roundup
Issued by NWS

Home | Current Version | Previous Version | Text Only | Print | Product List | Glossary On
Versions: 1 2 3 4 5 6 7 8 9 10 11 12 13 14 15 16 17 18 19 20 21 22 23 24 25
931
ASUS42 KTBW 221816
RWRFL
FLORIDA REGIONAL WEATHER ROUNDUP
NATIONAL WEATHER SERVICE TAMPA BAY RUSKIN FL
200 PM EDT FRI MAY 22 2015

NOTE: "FAIR" INDICATES FEW OR NO CLOUDS BELOW 12,000 FEET WITH NO
SIGNIFICANT WEATHER AND/OR OBSTRUCTIONS TO VISIBILITY.


FLZ001>010-012>015-112-114-115-221900-
PANHANDLE FLORIDA

CITY           SKY/WX    TMP DP  RH WIND       PRES   REMARKS
PENSACOLA      SUNNY     78  57  48 VRB7      30.16S
PENSACOLA NAS  PTSUNNY   81  57  43 VRB5      30.15F
MILTON NAS     MOSUNNY   79  55  43 N8        30.16
CRESTVIEW      SUNNY     80  54  40 VRB6      30.18F
DUKE FIELD     FAIR      78  55  44 NE8       30.15F HAZE
VALPARAISO     PTSUNNY   81  51  34 NE3       30.15F
MARY ESTHER    MOSUNNY   81  53  38 CALM      30.14
TRI COUNTY     FAIR      77  54  44 VRB3      30.18S
PANAMA CITY    FAIR      82  57  42 N9        30.14F
TYNDALL AFB    SUNNY     83  62  48 VRB6      30.13F
APALACHICOLA   MOSUNNY   84  65  52 VRB6      30.13F

STATION/POSITION SKY/WX   TEMP    WIND        PRES    WAVE   SWELL
                          AIR SEA DIR/SP/G            HT/PER HT/PER
                          (F)     (DEG/KT/KT) (MB)    (FT/S) (FT/S)
30.1N   87.6W              72 81   50/  8/ 10 1020.7F   2/ 4
29.2N   88.2W              74 81   60/ 12/ 16 1021.3R   4/ 5
28.8N   86.0W              76 81   60/ 12/ 14 1020.5F   2/ 5
PANAMA CITY BEAC           75 77   60/  7/ 12 1020.8F
CAPE SAN BLAS    NOT AVBL
TOWER C                    74      60/  4/  5 1020.5F
28.5N   84.5W              79 81   30/  8/ 10 1020.5R   2/ 4   2/ 5

$$
FLZ011-016>038-118-127-128-134-139-239-221900-
NORTH FLORIDA

CITY           SKY/WX    TMP DP  RH WIND       PRES   REMARKS
MARIANNA       SUNNY     78  53  41 VRB7      30.16S
TALLAHASSEE    MOSUNNY   84  56  38 N9        30.14F
PERRY          MOSUNNY   83  58  43 N5        30.14S
CROSS CITY       N/A     87  64  46 W6        30.12F
LAKE CITY      FAIR      84  59  42 W8        30.13S
GAINESVILLE    SUNNY     85  63  47 VRB7      30.12S
MAYPORT NAS    SUNNY     80  64  58 NE13      30.14R
JACKSONVILLE   MOSUNNY   85  56  37 VRB5      30.12S
JAX NAS        MOSUNNY   87  56  34 NE8       30.13S
JAX CRAIG      SUNNY     81  63  54 NE12G18   30.13R
JAX CECIL      SUNNY     84  59  42 VRB6      30.13S
FERNANDINA BEA FAIR      82  64  54 NE14G20   30.13S
ST AUGUSTINE   SUNNY     79  67  66 N13       30.14R

STATION/POSITION SKY/WX   TEMP    WIND        PRES    WAVE   SWELL
                          AIR SEA DIR/SP/G            HT/PER HT/PER
                          (F)     (DEG/KT/KT) (MB)    (FT/S) (FT/S)
SHELL POINT                80     160/  4/  7   N/A
KEATON BEACH               79     290/  5/  6 1020.3F
CEDAR KEY                  82     320/  5/  9 1020.4R
FERNANDINA                 75 77   40/  5/ 10 1019.9F
30.7N   81.3W                 78                N/A     2/ 4
MAYPORT                    73 75   60/ 11/ 13 1020.5F
31.4N   80.9W              72 77   50/ 16/ 19 1020.8R   3/ 4
ST AUGUSTINE               74 75   10/ 13/ 14 1021.1R

$$
FLZ040-043>046-052-053-057-058-063-144-221900-
INTERIOR CENTRAL FLORIDA

CITY           SKY/WX    TMP DP  RH WIND       PRES   REMARKS
OCALA          MOSUNNY   90  64  43 NW12      30.11S
THE VILLAGES     N/A     90  70  51 CALM      30.00S HX  95
LEESBURG       SUNNY     91  64  40 NW5       30.11S
SANFORD        SUNNY     91  67  44 N12       30.09S
ORLANDO EXEC   PTSUNNY   91  67  44 CALM      30.09S
ORLANDO INTL   MOSUNNY   92  68  45 VRB3      30.09F HX  96
KISSIMMEE      MOSUNNY   90  70  51 NW8       30.10S HX  95
WINTER HAVEN   SUNNY     93  67  42 VRB6      30.10F HX  96
LAKELAND       MOSUNNY   91  68  46 W5        30.10F HX  95
BARTOW         PTSUNNY   90  66  45 N6        30.10S
OKEECHOBEE     MOSUNNY   88  70  55 NW6       30.09S

$$
FLZ041-047-054-059-064-141-147-221900-
EAST CENTRAL FLORIDA

CITY           SKY/WX    TMP DP  RH WIND       PRES   REMARKS
ORMOND BEACH   SUNNY     81  68  65 NE12      30.11
DAYTONA BEACH  MOSUNNY   84  70  62 NE14      30.12R
DELAND           N/A     90  66  45 NW7       30.11S
NEW SMYRNA BEA SUNNY     82  68  61 N12       30.12S
JFK SPACE CTR  PTSUNNY   84  71  65 N8        30.09S
TITUSVILLE     MOSUNNY   86  70  58 NE9       30.10S
CAPE CANAVERAL MOSUNNY   85  71  63 NE8       30.09S
PATRICK AFB    SUNNY     85  72  64 NE14      30.09S
MELBOURNE      SUNNY     87  70  56 NE13      30.09S
VERO BEACH     SUNNY     89  73  59 NE14      30.10S HX  97
FT PIERCE      SUNNY     86  75  69 E12G20    30.09S HX  95
STUART         PTSUNNY   84  75  74 NE12      30.10F

STATION/POSITION SKY/WX   TEMP    WIND        PRES    WAVE   SWELL
                          AIR SEA DIR/SP/G            HT/PER HT/PER
                          (F)     (DEG/KT/KT) (MB)    (FT/S) (FT/S)
28.5N   80.2W              79 80  350/ 10/ 12 1019.5R
28.9N   78.5W              81 82  310/  2/  4 1019.0R
TRIDENT PIER               86 82  350/  4/ 10 1019.7S
28.4N   80.5W                 82                N/A     1/ 2
27.5N   80.2W                 81                N/A     1/ 3

$$
FLZ050-056-061-142-242-148-248-149-249-151-251-155-255-
160-260-221900-
WEST CENTRAL FLORIDA

CITY           SKY/WX    TMP DP  RH WIND       PRES   REMARKS
CRYSTAL RIVER  FAIR      90  68  48 W10       30.11S
INVERNESS      FAIR      90  70  51 N8        30.10S HX  95
BROOKSVILLE    MOSUNNY   93  67  42 W10       30.10S HX  96
CLEARWATER     SUNNY     89  70  53 NE6       30.10S
TAMPA INTL     MOSUNNY   92  67  43 VRB6      30.10S HX  95
TAMPA EXEC     SUNNY     93  68  43 N3        30.10S HX  97
PLANT CITY     MOSUNNY   91  70  49 N7        30.11S HX  97
MACDILL AFB    MOSUNNY   93  72  50 VRB7      30.09F HX 100
PETER O KNIGHT PTSUNNY   91  70  49 S5        30.09S HX  97
ST PETERSBURG  SUNNY     90  69  50 E5        30.08F
SARASOTA       MOSUNNY   91  71  51 W12       30.08S HX  97
VENICE         FAIR      86  77  74 W13       30.10S HX  97

STATION/POSITION SKY/WX   TEMP    WIND        PRES    WAVE   SWELL
                          AIR SEA DIR/SP/G            HT/PER HT/PER
                          (F)     (DEG/KT/KT) (MB)    (FT/S) (FT/S)
CEDAR KEY                  82     320/  5/  9 1020.4R
28.5N   84.5W              79 81   30/  8/ 10 1020.5R   2/ 4   2/ 5
27.3N   84.2W                 82                N/A     1/ 4
CLEARWATER BEACH           82 85  340/ 11/ 12 1019.5F
MIDDLE TAMPA BAY           83      20/  4/  6 1019.8F
VENICE                     83 85  290/ 12/ 12 1018.8S

$$
FLZ066-069-070-075>078-162-262-165-265-221900-
SOUTHWEST FLORIDA AND KEYS

CITY           SKY/WX    TMP DP  RH WIND       PRES   REMARKS
PUNTA GORDA    PTSUNNY   93  69  45 VRB3      30.09F HX  98
FT MYERS       MOSUNNY   93  68  43 W9        30.07S THUNDER HX  97
SOUTHWEST INTL MOSUNNY   93  68  43 W7        30.08S HX  97
NAPLES         MOSUNNY   88  73  61 W13       30.08F HX  95
MARCO ISLAND   PTCLDY    90  72  55 W9        30.09S HX  96
IMMOKALEE      CLOUDY   N/A N/A N/A CALM      30.08F
MARATHON       CLOUDY    87  76  69 SE3       30.10S HX  97
KEY WEST NAS   PTSUNNY   86  73  65 SW8       30.10F
KEY WEST INTL  PTSUNNY   85  73  67 SW6       30.10F

STATION/POSITION SKY/WX   TEMP    WIND        PRES    WAVE   SWELL
                          AIR SEA DIR/SP/G            HT/PER HT/PER
                          (F)     (DEG/KT/KT) (MB)    (FT/S) (FT/S)
VENICE                     83 85  290/ 12/ 12 1018.8S
NAPLES                     82 86  300/ 10/ 12 1019.0R
26.0N   85.6W              81 85   30/  6/  8 1019.8F   1
DRY TORTUGAS               81      90/  5/  5 1019.6S
NW FL BAY                  84     260/  3/  4 1019.2
SAND KEY                   82     210/  3/  4 1019.5F
SOMBRERO KEY               84     190/  7/  8 1019.9F
LONG KEY                   85 88  230/  2/  3 1020.0S
MOLASSES REEF              82 83  190/  4/  4 1019.1F

$$
FLZ067-068-071>074-168-172>174-221900-
SOUTHEAST FLORIDA

CITY           SKY/WX    TMP DP  RH WIND       PRES   REMARKS
W PALM BEACH   MOSUNNY   88  71  57 E10       30.09S THUNDER
FT LAUDER-EXEC MOSUNNY   89  74  60 E12       30.08S HX  98
FT LAUDERDALE  MOSUNNY   87  74  64 E13       30.08S HX  95
POMPANO BEACH  MOSUNNY   86  74  67 E13       30.08F
PEMBROKE PINES SUNNY     90  73  57 E13       30.09S HX  98
OPA LOCKA      PTSUNNY   87  74  64 SE9       30.08F THUNDER HX  95
MIAMI          PTSUNNY   86  73  65 E7        30.08F
WEST KENDALL   SUNNY     92  72  51 SE10      30.07F HX  99
HOMESTEAD      MOSUNNY   90  73  55 SE9       30.07F HX  98

STATION/POSITION SKY/WX   TEMP    WIND        PRES    WAVE   SWELL
                          AIR SEA DIR/SP/G            HT/PER HT/PER
                          (F)     (DEG/KT/KT) (MB)    (FT/S) (FT/S)
PORT EVERGLADES            85     100/  4/  7 1018.8F
VIRGINIA KEY               82 85  150/  5/  8 1018.8R
LAKE WORTH                 81 83   40/  8/ 10 1018.7S



USA.gov is the U.S. government's official web portal to all federal, state and local government web resources and services.